Simultaneous Nadir Overpasses (SNOs) Predictions

Prediction of SNOs between AURA and NPP Satellite Orbit:

Table of predicted SNOs for the next 14.0 days since TLE Epoch: 12/11/2021
Index Date (AURA) Time (AURA) Lat,Lon (AURA) SZA (AURA ) Date (NPP) Time (NPP) Lat,Lon (NPP) SZA (NPP ) Distance(km) Time Diff (sec)
1 12/13/2021 18:19:01 79.49, 161.99 114.95 12/13/2021 18:18:15 79.49, 162.13 114.96 2.90 46
2 12/13/2021 19:08:25 -79.61, -29.53 65.22 12/13/2021 19:08:57 -79.60, -29.66 65.22 2.71 32
3 12/16/2021 10:35:29 79.55, -81.68 115.06 12/16/2021 10:35:05 79.56, -81.54 115.05 3.05 24
4 12/16/2021 11:24:52 -79.71, 87.10 65.17 12/16/2021 11:25:46 -79.70, 86.98 65.19 2.53 54
5 12/19/2021 02:51:59 79.53, 34.07 115.22 12/19/2021 02:51:58 79.52, 33.96 115.24 2.51 1
6 12/19/2021 03:40:10 -81.60,-132.59 68.76 12/19/2021 03:41:24 -81.24,-132.16 68.97 39.89 74
7 12/21/2021 18:19:06 -79.41, -18.55 64.53 12/21/2021 18:18:09 -79.41, -18.49 64.50 1.42 57
8 12/21/2021 19:08:26 79.62, 150.59 115.18 12/21/2021 19:08:47 79.62, 150.54 115.17 1.00 21
9 12/24/2021 10:35:34 -79.42, 97.39 64.51 12/24/2021 10:35:00 -79.41, 97.27 64.46 2.72 34



Historial Predications of SNOs between AURA and NPP
